Orbital Elements at Epoch 2459200.5 (2020-Dec-17.0) TDB
Reference: JPL 16 (heliocentric ecliptic J2000)
Element | Value | Uncertainty (1-sigma) | Units |
e | .2191562863963231 | 4.0749e-08 | |
a | 2.452442639651881 | 1.0546e-08 | au |
q | 1.914974418145779 | 9.7992e-08 | au |
i | 2.494774681732998 | 4.2778e-06 | deg |
node | 173.3151847172554 | 8.2991e-05 | deg |
peri | 219.1425338000718 | 8.3546e-05 | deg |
M | 20.43747590835343 | 7.4945e-06 | deg |
tp | 2459120.861793333305 (2020-Sep-28.36179333) | 2.923e-05 | TDB |
period | 1402.803092151509 3.84 | 9.0485e-06 2.477e-08 | d yr |
n | .2566290322670022 | 1.6553e-09 | deg/d |
Q | 2.989910861157984 | 1.2857e-08 | au |
|
| | Orbit Determination Parameters
Additional Information
|